Year,Month,Day,Hour,Minute,Value (Times are PST for temperature in C)
2013,04,16,09,04,9.80
2013,04,16,09,05,9.80
2013,04,16,09,06,9.80
2013,04,16,09,07,9.80
2013,04,16,09,08,9.90
2013,04,16,09,09,9.90
2013,04,16,09,10,9.90
2013,04,16,09,11,9.90
2013,04,16,09,12,10.00
2013,04,16,09,13,10.10
2013,04,16,09,14,10.10
2013,04,16,09,15,10.10
2013,04,16,09,16,10.10
2013,04,16,09,17,10.10
2013,04,16,09,18,10.20
2013,04,16,09,19,10.20
2013,04,16,09,20,10.20
2013,04,16,09,21,10.30
2013,04,16,09,22,10.30
2013,04,16,09,23,10.30
2013,04,16,09,24,10.40
2013,04,16,09,25,10.40
2013,04,16,09,26,10.40
2013,04,16,09,27,10.50
2013,04,16,09,28,10.60
2013,04,16,09,29,10.60
2013,04,16,09,30,10.50
2013,04,16,09,31,10.40
2013,04,16,09,32,10.40
2013,04,16,09,33,10.40
2013,04,16,09,34,10.40
2013,04,16,09,35,10.30
2013,04,16,09,36,10.30
2013,04,16,09,37,10.30
2013,04,16,09,38,10.40
2013,04,16,09,39,10.30
2013,04,16,09,40,10.30
2013,04,16,09,41,10.40
2013,04,16,09,42,10.40
2013,04,16,09,43,10.40
2013,04,16,09,44,10.40
2013,04,16,09,45,10.60
2013,04,16,09,46,10.60
2013,04,16,09,47,10.70
2013,04,16,09,48,10.70
2013,04,16,09,49,10.70
2013,04,16,09,50,10.70
2013,04,16,09,51,10.70
2013,04,16,09,52,10.70
2013,04,16,09,53,10.70
2013,04,16,09,54,10.70
2013,04,16,09,55,10.70
2013,04,16,09,56,10.70
2013,04,16,09,57,10.70
2013,04,16,09,58,10.80
2013,04,16,09,59,10.80
2013,04,16,10,00,10.80
2013,04,16,10,01,10.80
2013,04,16,10,02,10.90
2013,04,16,10,03,10.90
2013,04,16,10,04,10.90
2013,04,16,10,05,11.00
2013,04,16,10,06,11.10
2013,04,16,10,07,11.00
2013,04,16,10,08,10.90
2013,04,16,10,09,10.90
2013,04,16,10,10,10.90
2013,04,16,10,11,10.90
2013,04,16,10,12,10.90
2013,04,16,10,13,11.10
2013,04,16,10,14,11.10
2013,04,16,10,15,11.10
2013,04,16,10,16,11.10
2013,04,16,10,17,11.10
2013,04,16,10,18,11.20
2013,04,16,10,19,11.20
2013,04,16,10,20,11.20
2013,04,16,10,21,11.20
2013,04,16,10,22,11.30
2013,04,16,10,23,11.40
2013,04,16,10,24,11.30
2013,04,16,10,25,11.30
2013,04,16,10,26,11.30
2013,04,16,10,27,11.20
2013,04,16,10,28,11.30
2013,04,16,10,29,11.30
2013,04,16,10,30,11.40
2013,04,16,10,31,11.40
2013,04,16,10,32,11.40
2013,04,16,10,33,11.40
2013,04,16,10,34,11.40
2013,04,16,10,35,11.30
2013,04,16,10,36,11.40
2013,04,16,10,37,11.40
2013,04,16,10,38,11.40
2013,04,16,10,39,11.40
2013,04,16,10,40,11.40
2013,04,16,10,41,11.50
2013,04,16,10,42,11.60
2013,04,16,10,43,11.60
2013,04,16,10,44,11.60
2013,04,16,10,45,11.60
2013,04,16,10,46,11.60
2013,04,16,10,47,11.70
2013,04,16,10,48,11.70
2013,04,16,10,49,11.70
2013,04,16,10,50,11.70
2013,04,16,10,51,11.60
2013,04,16,10,52,11.60
2013,04,16,10,53,11.60
2013,04,16,10,54,11.60
2013,04,16,10,55,11.60
2013,04,16,10,56,11.60
2013,04,16,10,57,11.60
2013,04,16,10,58,11.60
2013,04,16,10,59,11.60
2013,04,16,11,00,11.60
2013,04,16,11,01,11.60
2013,04,16,11,02,11.60
2013,04,16,11,03,11.60
2013,04,16,11,04,11.60
2013,04,16,11,05,11.70
2013,04,16,11,06,11.70
2013,04,16,11,07,11.70
2013,04,16,11,08,11.80
2013,04,16,11,09,11.80
2013,04,16,11,10,11.80
2013,04,16,11,11,11.80
2013,04,16,11,12,11.80
2013,04,16,11,13,11.80
2013,04,16,11,14,11.80
2013,04,16,11,15,11.80
2013,04,16,11,16,11.80
2013,04,16,11,17,11.90
2013,04,16,11,18,11.90
2013,04,16,11,19,11.90
2013,04,16,11,20,11.90
2013,04,16,11,21,11.90
2013,04,16,11,22,11.90
2013,04,16,11,23,12.00
2013,04,16,11,24,12.00
2013,04,16,11,25,12.00
2013,04,16,11,26,12.00
2013,04,16,11,27,12.00
2013,04,16,11,28,12.00
2013,04,16,11,29,12.00
2013,04,16,11,30,12.00
2013,04,16,11,31,12.00
2013,04,16,11,32,12.00
2013,04,16,11,33,12.00
2013,04,16,11,34,12.00
2013,04,16,11,35,12.00
2013,04,16,11,36,12.00
2013,04,16,11,37,12.00
2013,04,16,11,38,12.00
2013,04,16,11,39,12.00
2013,04,16,11,40,12.00
2013,04,16,11,41,11.90
2013,04,16,11,42,11.80
2013,04,16,11,43,11.90
2013,04,16,11,44,11.80
2013,04,16,11,45,11.80
2013,04,16,11,46,11.80
2013,04,16,11,47,11.80
2013,04,16,11,48,11.90
2013,04,16,11,49,11.90
2013,04,16,11,50,11.90
2013,04,16,11,51,11.80
2013,04,16,11,52,11.80
2013,04,16,11,53,11.80
2013,04,16,11,54,11.80
2013,04,16,11,55,11.80
2013,04,16,11,56,11.80
2013,04,16,11,57,11.90
2013,04,16,11,58,11.80
2013,04,16,11,59,12.00
2013,04,16,12,00,12.00
2013,04,16,12,01,12.10
2013,04,16,12,02,12.10
2013,04,16,12,03,12.20
2013,04,16,12,04,12.20
2013,04,16,12,05,12.20
2013,04,16,12,06,12.20
2013,04,16,12,07,12.30
2013,04,16,12,08,12.40
2013,04,16,12,09,12.50
2013,04,16,12,10,12.60
2013,04,16,12,11,12.60
2013,04,16,12,12,12.60
2013,04,16,12,13,12.60
2013,04,16,12,14,12.60
2013,04,16,12,15,12.60
2013,04,16,12,16,12.70
2013,04,16,12,17,12.70
2013,04,16,12,18,12.70
2013,04,16,12,19,12.70
2013,04,16,12,20,12.70
2013,04,16,12,21,12.70
2013,04,16,12,22,12.80
2013,04,16,12,23,12.80
2013,04,16,12,24,12.70
2013,04,16,12,25,12.70
2013,04,16,12,26,12.60
2013,04,16,12,27,12.60
2013,04,16,12,28,12.50
2013,04,16,12,29,12.60
2013,04,16,12,30,12.60
2013,04,16,12,31,12.60
2013,04,16,12,32,12.70
2013,04,16,12,33,12.70
2013,04,16,12,34,12.70
2013,04,16,12,35,12.80
2013,04,16,12,36,12.80
2013,04,16,12,37,12.80
2013,04,16,12,38,12.90
2013,04,16,12,39,13.00
2013,04,16,12,40,13.00
2013,04,16,12,41,13.10
2013,04,16,12,42,13.10
2013,04,16,12,43,13.20
2013,04,16,12,44,13.20
2013,04,16,12,45,13.20
2013,04,16,12,46,13.20
2013,04,16,12,47,13.20
2013,04,16,12,48,13.20
2013,04,16,12,49,13.30
2013,04,16,12,50,13.30
2013,04,16,12,51,13.30
2013,04,16,12,52,13.30
2013,04,16,12,53,13.30
2013,04,16,12,54,13.30
2013,04,16,12,55,13.30
2013,04,16,12,56,13.30
2013,04,16,12,57,13.40
2013,04,16,12,58,13.40
2013,04,16,12,59,13.30
2013,04,16,13,00,13.30
2013,04,16,13,01,13.30
2013,04,16,13,02,13.30
2013,04,16,13,03,13.40
2013,04,16,13,04,13.50
2013,04,16,13,05,13.60
2013,04,16,13,06,13.60
2013,04,16,13,07,13.70
2013,04,16,13,08,13.60
2013,04,16,13,09,13.60
2013,04,16,13,10,13.50
2013,04,16,13,11,13.50
2013,04,16,13,12,13.50
2013,04,16,13,13,13.50
2013,04,16,13,14,13.50
2013,04,16,13,15,13.50
2013,04,16,13,16,13.50
2013,04,16,13,17,13.60
2013,04,16,13,18,13.60
2013,04,16,13,19,13.60
2013,04,16,13,20,13.60
2013,04,16,13,21,13.50
2013,04,16,13,22,13.50
2013,04,16,13,23,13.40
2013,04,16,13,24,13.30
2013,04,16,13,25,13.30
2013,04,16,13,26,13.30
2013,04,16,13,27,13.40
2013,04,16,13,28,13.40
2013,04,16,13,29,13.50
2013,04,16,13,30,13.50
2013,04,16,13,31,13.50
2013,04,16,13,32,13.60
2013,04,16,13,33,13.60
2013,04,16,13,34,13.70
2013,04,16,13,35,13.80
2013,04,16,13,36,13.80
2013,04,16,13,37,13.80
2013,04,16,13,38,13.70
2013,04,16,13,39,13.70
2013,04,16,13,40,13.70
2013,04,16,13,41,13.60
2013,04,16,13,42,13.50
2013,04,16,13,43,13.50
2013,04,16,13,44,13.50
2013,04,16,13,45,13.60
2013,04,16,13,46,13.60
2013,04,16,13,47,13.60
2013,04,16,13,48,13.50
2013,04,16,13,49,13.50
2013,04,16,13,50,13.60
2013,04,16,13,51,13.60
2013,04,16,13,52,13.50
2013,04,16,13,53,13.50
2013,04,16,13,54,13.60
2013,04,16,13,55,13.60
2013,04,16,13,56,13.70
2013,04,16,13,57,13.70
2013,04,16,13,58,13.80
2013,04,16,13,59,13.90
2013,04,16,14,00,14.00
2013,04,16,14,01,14.00
2013,04,16,14,02,14.10
2013,04,16,14,03,14.20
2013,04,16,14,04,14.30
2013,04,16,14,05,14.30
2013,04,16,14,06,14.30
2013,04,16,14,07,14.20
2013,04,16,14,08,14.20
2013,04,16,14,09,14.20
2013,04,16,14,10,14.10
2013,04,16,14,11,13.90
2013,04,16,14,12,13.90
2013,04,16,14,13,13.90
2013,04,16,14,14,13.90
2013,04,16,14,15,13.90
2013,04,16,14,16,14.00
2013,04,16,14,17,14.00
2013,04,16,14,18,14.20
2013,04,16,14,19,14.20
2013,04,16,14,20,14.20
2013,04,16,14,21,14.20
2013,04,16,14,22,14.30
2013,04,16,14,23,14.40
2013,04,16,14,24,14.40
2013,04,16,14,25,14.40
2013,04,16,14,26,14.50
2013,04,16,14,27,14.50
2013,04,16,14,28,14.50
2013,04,16,14,29,14.50
2013,04,16,14,30,14.50
2013,04,16,14,31,14.40
2013,04,16,14,32,14.40
2013,04,16,14,33,14.30
2013,04,16,14,34,14.30
2013,04,16,14,35,14.40
2013,04,16,14,36,14.50
2013,04,16,14,37,14.50
2013,04,16,14,38,14.60
2013,04,16,14,39,14.60
2013,04,16,14,40,14.60
2013,04,16,14,41,14.60
2013,04,16,14,42,14.60
2013,04,16,14,43,14.60
2013,04,16,14,44,14.60
2013,04,16,14,45,14.50
2013,04,16,14,46,14.40
2013,04,16,14,47,14.40
2013,04,16,14,48,14.50
2013,04,16,14,49,14.50
2013,04,16,14,50,14.50
2013,04,16,14,51,14.50
2013,04,16,14,52,14.50
2013,04,16,14,53,14.60
2013,04,16,14,54,14.80
2013,04,16,14,55,14.80
2013,04,16,14,56,14.70
2013,04,16,14,57,14.60
2013,04,16,14,58,14.60
2013,04,16,14,59,14.60
2013,04,16,15,00,14.50
2013,04,16,15,01,14.50
2013,04,16,15,02,14.50
2013,04,16,15,03,14.50
2013,04,16,15,04,14.60
2013,04,16,15,05,14.60
2013,04,16,15,06,14.60
2013,04,16,15,07,14.60
2013,04,16,15,08,14.60
2013,04,16,15,09,14.60
2013,04,16,15,10,14.70
2013,04,16,15,11,14.70
2013,04,16,15,12,14.70
2013,04,16,15,13,14.60
2013,04,16,15,14,14.60
2013,04,16,15,15,14.60
2013,04,16,15,16,14.70
2013,04,16,15,17,14.80
2013,04,16,15,18,14.90
2013,04,16,15,19,14.90
2013,04,16,15,20,15.00
2013,04,16,15,21,14.90
2013,04,16,15,22,14.90
2013,04,16,15,23,14.90
2013,04,16,15,24,14.90
2013,04,16,15,25,15.00
2013,04,16,15,26,15.10
2013,04,16,15,27,15.00
2013,04,16,15,28,14.90
2013,04,16,15,29,14.80
2013,04,16,15,30,14.70
2013,04,16,15,31,14.60
2013,04,16,15,32,14.60
2013,04,16,15,33,14.50
2013,04,16,15,34,14.50
2013,04,16,15,35,14.50
2013,04,16,15,36,14.40
2013,04,16,15,37,14.40
2013,04,16,15,38,14.50
2013,04,16,15,39,14.60
2013,04,16,15,40,14.70
2013,04,16,15,41,14.80
2013,04,16,15,42,14.90
2013,04,16,15,43,15.00
2013,04,16,15,44,15.10
2013,04,16,15,45,15.20
2013,04,16,15,46,15.20
2013,04,16,15,47,15.20
2013,04,16,15,48,15.10
2013,04,16,15,49,15.10
2013,04,16,15,50,15.20
2013,04,16,15,51,15.20
2013,04,16,15,52,15.30
2013,04,16,15,53,15.30
2013,04,16,15,54,15.30
2013,04,16,15,55,15.40
2013,04,16,15,56,15.40
2013,04,16,15,57,15.50
2013,04,16,15,58,15.50
2013,04,16,15,59,15.50
2013,04,16,16,00,15.60
2013,04,16,16,01,15.70
2013,04,16,16,02,15.70
2013,04,16,16,03,15.80
2013,04,16,16,04,15.80
2013,04,16,16,05,15.70
2013,04,16,16,06,15.60
2013,04,16,16,07,15.60
2013,04,16,16,08,15.60
2013,04,16,16,09,15.50
2013,04,16,16,10,15.50
2013,04,16,16,11,15.50
2013,04,16,16,12,15.50
2013,04,16,16,13,15.40
2013,04,16,16,14,15.30
2013,04,16,16,15,15.10
2013,04,16,16,16,15.00
2013,04,16,16,17,14.90
2013,04,16,16,18,14.90
2013,04,16,16,19,14.80
2013,04,16,16,20,14.80
2013,04,16,16,21,14.80
2013,04,16,16,22,14.80
2013,04,16,16,23,14.80
2013,04,16,16,24,14.80
2013,04,16,16,25,14.90
2013,04,16,16,26,14.90
2013,04,16,16,27,14.80
2013,04,16,16,28,14.80
2013,04,16,16,29,14.60
2013,04,16,16,30,14.50
2013,04,16,16,31,14.50
2013,04,16,16,32,14.50
2013,04,16,16,33,14.50
2013,04,16,16,34,14.50
2013,04,16,16,35,14.50
2013,04,16,16,36,14.60
2013,04,16,16,37,14.70
2013,04,16,16,38,14.70
2013,04,16,16,39,14.80
2013,04,16,16,40,14.80
2013,04,16,16,41,14.80
2013,04,16,16,42,14.90
2013,04,16,16,43,14.90
2013,04,16,16,44,15.00
2013,04,16,16,45,15.00
2013,04,16,16,46,15.00
2013,04,16,16,47,15.10
2013,04,16,16,48,15.10
2013,04,16,16,49,15.20
2013,04,16,16,50,15.20
2013,04,16,16,51,15.20
2013,04,16,16,52,15.20
2013,04,16,16,53,15.10
2013,04,16,16,54,15.20
2013,04,16,16,55,15.20
2013,04,16,16,56,15.30
2013,04,16,16,57,15.30
2013,04,16,16,58,15.30
2013,04,16,16,59,15.30
2013,04,16,17,00,15.20
2013,04,16,17,01,15.10
2013,04,16,17,02,15.10
2013,04,16,17,03,15.00
2013,04,16,17,04,15.00
2013,04,16,17,05,14.90
2013,04,16,17,06,14.80
2013,04,16,17,07,14.80
2013,04,16,17,08,14.70
2013,04,16,17,09,14.70
2013,04,16,17,10,14.70
2013,04,16,17,11,14.60
2013,04,16,17,12,14.60
2013,04,16,17,13,14.60
2013,04,16,17,14,14.60
2013,04,16,17,15,14.70
2013,04,16,17,16,14.70
2013,04,16,17,17,14.70
2013,04,16,17,18,14.60
2013,04,16,17,19,14.60
2013,04,16,17,20,14.50
2013,04,16,17,21,14.50
2013,04,16,17,22,14.40
2013,04,16,17,23,14.40
2013,04,16,17,24,14.30
2013,04,16,17,25,14.20
2013,04,16,17,26,14.20
2013,04,16,17,27,14.20
2013,04,16,17,28,14.20
2013,04,16,17,29,14.20
2013,04,16,17,30,14.20
2013,04,16,17,31,14.20
2013,04,16,17,32,14.20
2013,04,16,17,33,14.20
2013,04,16,17,34,14.20
2013,04,16,17,35,14.20
2013,04,16,17,36,14.20
2013,04,16,17,37,14.30
2013,04,16,17,38,14.30
2013,04,16,17,39,14.20
2013,04,16,17,40,14.30
2013,04,16,17,41,14.20
2013,04,16,17,42,14.10
2013,04,16,17,43,14.00
2013,04,16,17,44,14.00
2013,04,16,17,45,14.00
2013,04,16,17,46,14.00
2013,04,16,17,47,13.90
2013,04,16,17,48,13.90
2013,04,16,17,49,13.90
2013,04,16,17,50,13.90
2013,04,16,17,51,13.90
2013,04,16,17,52,14.00
2013,04,16,17,53,14.00
2013,04,16,17,54,14.00
2013,04,16,17,55,14.00
2013,04,16,17,56,14.00
2013,04,16,17,57,14.10
2013,04,16,17,58,14.10
2013,04,16,17,59,14.10
2013,04,16,18,00,14.00
2013,04,16,18,01,14.00
2013,04,16,18,02,14.00
2013,04,16,18,03,13.90
2013,04,16,18,04,13.90
2013,04,16,18,05,13.90
2013,04,16,18,06,13.90
2013,04,16,18,07,13.90
2013,04,16,18,08,14.00
2013,04,16,18,09,13.90
2013,04,16,18,10,13.90
2013,04,16,18,11,13.90
2013,04,16,18,12,13.90
2013,04,16,18,13,14.00
2013,04,16,18,14,14.00
2013,04,16,18,15,14.00
2013,04,16,18,16,14.10
2013,04,16,18,17,14.20
2013,04,16,18,18,14.20
2013,04,16,18,19,14.20
2013,04,16,18,20,14.20
2013,04,16,18,21,14.20
2013,04,16,18,22,14.20
2013,04,16,18,23,14.10
2013,04,16,18,24,14.00
2013,04,16,18,25,13.90
2013,04,16,18,26,13.80
2013,04,16,18,27,13.70
2013,04,16,18,28,13.70
2013,04,16,18,29,13.70
2013,04,16,18,30,13.70
2013,04,16,18,31,13.70
2013,04,16,18,32,13.70
2013,04,16,18,33,13.60
2013,04,16,18,34,13.60
2013,04,16,18,35,13.60
2013,04,16,18,36,13.70
2013,04,16,18,37,13.70
2013,04,16,18,38,13.70
2013,04,16,18,39,13.80
2013,04,16,18,40,13.90
2013,04,16,18,41,13.90
2013,04,16,18,42,14.00
2013,04,16,18,43,14.00
2013,04,16,18,44,14.00
2013,04,16,18,45,14.00
2013,04,16,18,46,14.00
2013,04,16,18,47,14.00
2013,04,16,18,48,14.00
2013,04,16,18,49,14.00
2013,04,16,18,50,14.00
2013,04,16,18,51,14.00
2013,04,16,18,52,14.00
2013,04,16,18,53,14.00
2013,04,16,18,54,14.00
2013,04,16,18,55,14.00
2013,04,16,18,56,14.00
